Brinson, GA

12:23 PM EST on February 12, 2016 (GMT -0500)
Decatur County Industrial

Weather History for KBGE - December, 2013

Change the Weather History Date:

Saturday, December 7, 2013

  Actual Average (KMAI) Record (KMAI)
Temperature  
Mean Temperature 66 °F 54 °F  
Max Temperature 73 °F 66 °F 79 °F (1998)
Min Temperature 59 °F 43 °F 27 °F (1997)
Degree Days  
Heating Degree Days 0    
Month to date heating degree days  
Since 1 July heating degree days  
Cooling Degree Days 1    
Month to date cooling degree days  
Year to date cooling degree days  
Growing Degree Days 16 (Base 50)    
Moisture  
Dew Point 65 °F    
Average Humidity 93    
Maximum Humidity 100    
Minimum Humidity 83    
Precipitation  
Precipitation 0.00 in 0.14 in 0.64 in (2004)
Month to date precipitation 1.00  
Year to date precipitation 50.67  
Sea Level Pressure  
Sea Level Pressure 30.19 in    
Wind  
Wind Speed 5 mph (WNW)    
Max Wind Speed 9 mph    
Max Gust Speed -    
Visibility 8 miles    
Events Rain    
T = Trace of Precipitation, MM = Missing Value Source: NWS Daily Summary

Daily Weather History Graph

Daily Weather History Graph

Search for Another Location

Airport or City:

Trip Planner

Search our weather history database for the weather conditions in past years. The results will help you decide how hot, cold, wet, or windy it might be!

Date:

Astronomy

Dec. 07, 2013 Rise Set
Actual Time 7:23 AM EST 5:36 PM EST
Civil Twilight 6:57 AM EST 6:02 PM EST
Nautical Twilight 6:27 AM EST 6:33 PM EST
Astronomical Twilight 5:57 AM EST 7:02 PM EST
Moon 11:21 AM EST (12/7) 11:01 PM EST (12/7)
Length of Visible Light 11h 05m
Length of Day
10h 12m
Waxing Crescent, 29% of the Moon is Illuminated
Dec 7
Waxing Crescent
Dec 9
First Quarter
Dec 17
Full
Dec 25
Last Quarter
Jan 1
New

Hourly Weather History & Observations

Time (EST) Temp. Dew Point Humidity Pressure Visibility Wind Dir Wind Speed Gust Speed Precip Events Conditions
12:15 AM 73.4 °F 71.6 °F 94% 30.12 in 10.0 mi South 8.1 mph - N/A   Overcast
12:35 AM 73.4 °F 71.6 °F 94% 30.12 in 10.0 mi South 5.8 mph - N/A   Overcast
12:55 AM 73.4 °F 71.6 °F 94% 30.12 in 10.0 mi South 9.2 mph - N/A   Overcast
1:15 AM 73.4 °F 71.6 °F 94% 30.12 in 10.0 mi SSW 6.9 mph - N/A   Overcast
1:35 AM 73.4 °F 71.6 °F 94% 30.13 in 10.0 mi SW 4.6 mph - N/A   Overcast
1:55 AM 73.4 °F 71.6 °F 94% 30.12 in 10.0 mi SSW 6.9 mph - N/A   Overcast
2:15 AM 73.4 °F 71.6 °F 94% 30.12 in 10.0 mi South 6.9 mph - N/A   Overcast
2:35 AM 73.4 °F 71.6 °F 94% 30.12 in 10.0 mi South 8.1 mph - N/A   Overcast
2:55 AM 73.4 °F 71.6 °F 94% 30.12 in 10.0 mi South 6.9 mph - N/A   Overcast
3:15 AM 73.4 °F 71.6 °F 94% 30.12 in 7.0 mi South 5.8 mph - N/A   Drizzle
3:35 AM 73.4 °F 71.6 °F 94% 30.12 in 10.0 mi South 6.9 mph - N/A   Overcast
3:55 AM 73.4 °F 71.6 °F 94% 30.12 in 10.0 mi South 5.8 mph - N/A   Overcast
4:15 AM 73.4 °F 71.6 °F 94% 30.12 in 10.0 mi South 5.8 mph - N/A   Overcast
4:35 AM 73.4 °F 71.6 °F 94% 30.12 in 10.0 mi Calm Calm - N/A   Overcast
4:55 AM 73.4 °F 71.6 °F 94% 30.12 in 7.0 mi South 4.6 mph - N/A   Mostly Cloudy
5:15 AM 73.4 °F 71.6 °F 94% 30.12 in 7.0 mi SSW 3.5 mph - N/A Rain Light Rain
5:35 AM 73.4 °F 71.6 °F 94% 30.12 in 5.0 mi Calm Calm - N/A   Overcast
5:55 AM 73.4 °F 71.6 °F 94% 30.14 in 4.0 mi West 3.5 mph - N/A Rain Rain
6:15 AM 73.4 °F 71.6 °F 94% 30.14 in 5.0 mi Calm Calm - N/A Rain Light Rain
6:35 AM 73.4 °F 71.6 °F 94% 30.15 in 4.0 mi Calm Calm - N/A   Mostly Cloudy
6:55 AM 73.4 °F 71.6 °F 94% 30.16 in 7.0 mi Calm Calm - N/A   Mostly Cloudy
7:15 AM 73.4 °F 71.6 °F 94% 30.17 in 7.0 mi NW 4.6 mph - N/A   Overcast
7:35 AM 73.4 °F 71.6 °F 94% 30.17 in 7.0 mi Calm Calm - N/A   Mostly Cloudy
7:55 AM 71.6 °F 69.8 °F 94% 30.18 in 7.0 mi NW 5.8 mph - N/A   Mostly Cloudy
8:15 AM 71.6 °F 69.8 °F 94% 30.19 in 7.0 mi NNW 6.9 mph - N/A   Mostly Cloudy
8:35 AM 71.6 °F 69.8 °F 94% 30.19 in 10.0 mi North 5.8 mph - N/A   Mostly Cloudy
8:55 AM 69.8 °F 68.0 °F 94% 30.20 in 10.0 mi North 4.6 mph - N/A   Overcast
9:15 AM 68.0 °F 68.0 °F 100% 30.21 in 7.0 mi NNE 5.8 mph - N/A   Overcast
9:35 AM 68.0 °F 64.4 °F 88% 30.22 in 7.0 mi North 5.8 mph - N/A   Overcast
9:55 AM 68.0 °F 64.4 °F 88% 30.23 in 10.0 mi NNW 5.8 mph - N/A   Overcast
10:15 AM 68.0 °F 66.2 °F 94% 30.23 in 7.0 mi NW 5.8 mph - N/A Rain Rain
10:35 AM 66.2 °F 64.4 °F 94% 30.24 in 3.0 mi North 4.6 mph - N/A Rain Rain
10:55 AM 66.2 °F 64.4 °F 94% 30.24 in 4.0 mi North 4.6 mph - N/A Rain Rain
11:15 AM 64.4 °F 64.4 °F 100% 30.24 in 5.0 mi North 6.9 mph - N/A   Overcast
11:35 AM 64.4 °F 64.4 °F 100% 30.24 in 7.0 mi NNW 5.8 mph - N/A Rain Light Rain
11:55 AM 64.4 °F 62.6 °F 94% 30.24 in 4.0 mi NW 5.8 mph - N/A Rain Light Rain
12:15 PM 64.4 °F 62.6 °F 94% 30.23 in 7.0 mi NW 5.8 mph - N/A   Overcast
12:35 PM 64.4 °F 62.6 °F 94% 30.22 in 7.0 mi NW 6.9 mph - N/A   Overcast
12:55 PM 64.4 °F 62.6 °F 94% 30.21 in 10.0 mi NNW 4.6 mph - N/A   Overcast
1:15 PM 64.4 °F 62.6 °F 94% 30.21 in 10.0 mi NW 4.6 mph - N/A   Overcast
1:35 PM 64.4 °F 62.6 °F 94% 30.20 in 10.0 mi WNW 6.9 mph - N/A   Overcast
1:55 PM 64.4 °F 62.6 °F 94% 30.20 in 10.0 mi NW 5.8 mph - N/A   Overcast
2:15 PM 64.4 °F 62.6 °F 94% 30.19 in 10.0 mi Calm Calm - N/A   Overcast
2:35 PM 64.4 °F 62.6 °F 94% 30.19 in 10.0 mi NNW 6.9 mph - N/A   Overcast
2:55 PM 64.4 °F 62.6 °F 94% 30.19 in 10.0 mi Calm Calm - N/A   Overcast
3:15 PM 66.2 °F 62.6 °F 88% 30.19 in 10.0 mi NW 6.9 mph - N/A   Overcast
3:35 PM 66.2 °F 62.6 °F 88% 30.19 in 10.0 mi Calm Calm - N/A   Overcast
3:55 PM 66.2 °F 60.8 °F 83% 30.19 in 10.0 mi Calm Calm - N/A   Overcast
4:15 PM 66.2 °F 60.8 °F 83% 30.19 in 10.0 mi NNW 6.9 mph - N/A   Overcast
4:35 PM 64.4 °F 60.8 °F 88% 30.20 in 10.0 mi Calm Calm - N/A   Overcast
4:55 PM 64.4 °F 60.8 °F 88% 30.20 in 10.0 mi Calm Calm - N/A   Overcast
5:15 PM 64.4 °F 60.8 °F 88% 30.21 in 10.0 mi Calm Calm - N/A   Overcast
5:35 PM 62.6 °F 59.0 °F 88% 30.21 in 10.0 mi Calm Calm - N/A   Overcast
5:55 PM 62.6 °F 60.8 °F 94% 30.21 in 10.0 mi Calm Calm - N/A   Overcast
6:15 PM 62.6 °F 60.8 °F 94% 30.21 in 10.0 mi Calm Calm - N/A   Overcast
6:35 PM 62.6 °F 59.0 °F 88% 30.22 in 10.0 mi Calm Calm - N/A   Overcast
6:55 PM 62.6 °F 60.8 °F 94% 30.23 in 10.0 mi Calm Calm - N/A   Overcast
7:15 PM 62.6 °F 59.0 °F 88% 30.23 in 10.0 mi Calm Calm - N/A   Overcast
7:35 PM 60.8 °F 57.2 °F 88% 30.24 in 10.0 mi Calm Calm - N/A   Overcast
7:55 PM 60.8 °F 57.2 °F 88% 30.24 in 10.0 mi Calm Calm - N/A   Overcast
8:15 PM 60.8 °F 57.2 °F 88% 30.24 in 10.0 mi Calm Calm - N/A   Overcast
8:35 PM 60.8 °F 59.0 °F 94% 30.24 in 10.0 mi Calm Calm - N/A   Overcast
8:55 PM 60.8 °F 57.2 °F 88% 30.24 in 4.0 mi Calm Calm - N/A   Overcast
9:15 PM 60.8 °F 59.0 °F 94% 30.24 in 2.5 mi Calm Calm - N/A   Overcast
9:35 PM 59.0 °F 57.2 °F 94% 30.24 in 2.0 mi Calm Calm - N/A   Overcast
9:55 PM 59.0 °F 57.2 °F 94% 30.24 in 2.0 mi Calm Calm - N/A   Overcast
10:15 PM 59.0 °F 57.2 °F 94% 30.25 in 2.0 mi Calm Calm - N/A   Overcast
10:35 PM 59.0 °F 57.2 °F 94% 30.25 in 2.5 mi Calm Calm - N/A   Overcast
10:55 PM 59.0 °F 57.2 °F 94% 30.25 in 4.0 mi Calm Calm - N/A   Overcast
11:15 PM 59.0 °F 57.2 °F 94% 30.25 in 5.0 mi Calm Calm - N/A   Overcast
11:35 PM 59.0 °F 57.2 °F 94% 30.24 in 3.0 mi Calm Calm - N/A   Overcast
11:55 PM 59.0 °F 57.2 °F 94% 30.24 in 2.0 mi Calm Calm - N/A   Overcast